Terminal Aerodrome Forecast
Issued by NWS

Home | Current Version | Previous Version | Text Only | Print | Product List | Glossary On
Versions: 1 2 3 4 5 6 7 8 9 10 11 12 13 14 15 16 17 18 19 20 21 22 23 24 25
000
FTPA31 PHFO 312300
TAFOGG
TAF
PHOG 312339Z 0100/0124 08017G24KT P6SM FEW030 SCT050
     FM010600 06012KT P6SM VCSH SCT025 BKN040
     FM012000 08017G25KT P6SM VCSH FEW025 BKN035
      AMD LTD TO WX VIS AND WIND 0109/0116=

USA.gov is the U.S. government's official web portal to all federal, state and local government web resources and services.